Weather Roundup
Issued by NWS

Home | Current Version | Previous Version | Graphics & Text | Print | Product List | Glossary Off
Versions: 1 2 3 4 5 6 7 8 9 10 11 12 13 14 15 16 17 18 19 20 21 22 23 24 25 26 27 28 29 30 31 32 33 34 35 36 37 38 39 40 41 42 43 44 45 46 47 48 49 50

000
NZUS93 KARX 220110
HRRWXR

CURRENT HOURLY OBSERVATIONS ACROSS
MUCH OF THE UPPER MISSISSIPPI VALLEY
NATIONAL WEATHER SERVICE LA CROSSE WI
800 PM CDT THU AUG 21 2014


...SOUTHEAST MINNESOTA...


CITY           SKY/WX    TMP DP  RH WIND       PRES   REMARKS
ROCHESTER      MOCLDY    79  72  79 S9        29.86S
ROCHESTER/MAYO FAIR      80  71  73 SE6       29.85S
WINONA         CLOUDY    79  72  78 SE3       29.85S
AUSTIN         PTCLDY    81  72  74 S6        29.85R
ALBERT LEA     MOCLDY    81  72  74 CALM      29.85R
DODGE CENTER   MOCLDY    79  73  83 S6        29.85S
PRESTON        PTCLDY    77  75  93 S7        29.88S
OWATONNA       MOCLDY    82  72  69 S6        29.84R
FARIBAULT      MOCLDY    84  72  65 S3        29.82S
$$

...ELSEWHERE IN MINNESOTA...


CITY           SKY/WX    TMP DP  RH WIND       PRES   REMARKS
MINNEAPOLIS    PTCLDY    84  74  71 NE3       29.80S HX  91
INTNL FALLS    CLOUDY    66  62  87 E9        29.90S
DULUTH         CLOUDY    63  60  90 E8        29.90S
RED WING       MOCLDY    81  73  78 SE7       29.81R
REDWOOD FALLS  CLEAR     82  73  74 CALM      29.82R
MANKATO        MOCLDY    81  72  74 CALM      29.81S
WORTHINGTON    CLOUDY    82  21  10 NW6       29.87R
FAIRMONT       MOCLDY    81  72  74 MISG      29.84R
$$

...SOUTHWEST WISCONSIN...


CITY           SKY/WX    TMP DP  RH WIND       PRES   REMARKS
LA CROSSE      CLEAR     80  72  76 S14       29.86R
PRAIRIE DU CHI PTCLDY    76  71  83 E3        29.88F
BOSCOBEL       PTCLDY    78  72  81 CALM      29.90R
LONE ROCK      CLOUDY    81  72  74 SW3       29.91R
PLATTEVILLE    PTCLDY    74  72  93 W5        29.92S
FORT MC COY    CLOUDY    76  70  80 SE3       29.90R
CAMP DOUGLAS   PTCLDY    74  74 100 E5        29.91R
VIROQUA        FAIR      74  73  97 S6        29.91S
WIS DELLS      CLOUDY    74  70  88 CALM      29.92R
$$

...ELSEWHERE IN WISCONSIN...


CITY           SKY/WX    TMP DP  RH WIND       PRES   REMARKS
MILWAUKEE      MOCLDY    73  69  87 S7        29.93R
MADISON        MOCLDY    76  72  87 S5        29.91R
GREEN BAY      CLOUDY    68  65  90 E8        29.93S
EAU CLAIRE     CLOUDY    77  72  84 S10       29.84R
BLACK RVR FLS  CLOUDY    77  71  83 CALM      29.88R
MEDFORD        DRIZZLE   67  66  97 E7        29.92S
WAUSAU         CLOUDY    67  66  97 E8        29.92R FOG
WIS RAPIDS     CLOUDY    74  70  87 SE3       29.93R
MARSHFIELD     CLOUDY    74  70  87 SE9       29.90S
RICE LAKE      CLOUDY    72  69  93 CALM      29.87S
$$

...NORTHEAST IOWA...


CITY           SKY/WX    TMP DP  RH WIND       PRES   REMARKS
WATERLOO       PTCLDY    80  72  76 S6        29.86S
DUBUQUE        MOCLDY    74  71  91 CALM      29.91R
DECORAH        CLEAR     75  72  88 S5        29.88S
MASON CITY     CLEAR     80  73  79 S6        29.87S
CHARLES CITY   CLEAR     77  72  83 S7        29.87S
OELWEIN        CLOUDY    75  73  94 SE5       29.90S
$$

...ELSEWHERE IN IOWA...


CITY           SKY/WX    TMP DP  RH WIND       PRES   REMARKS
DES MOINES     PTCLDY    84  76  76 S5        29.84S HX  93
IOWA CITY      MOCLDY    78  76  93 SE3       29.88F
FORT DODGE     CLEAR     81  73  78 S7        29.86S
MARSHALLTOWN   CLEAR     80  75  84 S6        29.86S
CEDAR RAPIDS   PTCLDY    79  75  87 S8        29.86F
$$

...NORTHERN ILLINOIS...


CITY           SKY/WX    TMP DP  RH WIND       PRES   REMARKS
CHICAGO-OHARE  MOCLDY    76  71  85 S3        29.91R
DUPAGE         MOCLDY    76  74  93 CALM      29.91R
CHICAGO-MIDWAY CLOUDY    77  74  90 S6        29.90S
MOLINE         MOCLDY    81  73  76 CALM      29.87F
ROCKFORD       CLOUDY    76  73  91 E6        29.89F
STERLING       CLOUDY    79  73  83 W5        29.87S
PEORIA         CLEAR     83  76  79 S5        29.90S HX  91
$$

NOTE: "FAIR" INDICATES FEW OR NO CLOUDS BELOW 12,000 FEET WITH NO
SIGNIFICANT WEATHER AND/OR OBSTRUCTIONS TO VISIBILITY. WIND
SPEEDS ARE IN MILES-PER-HOUR.



USA.gov is the U.S. government's official web portal to all federal, state and local government web resources and services.